Location: Lafig�re
(44.4503°N, 4.0357°E)
Time: 01:04:30
(UTC+00:00)

Transit 4A - Pass Details

Date: 23 January 2021
Orbit: 866 x 979 km, 66.8° (Epoch: 24 February)

Event Time Altitude Azimuth Distance (km) Brightness Sun altitude
Rises 00:33:29 0° 326° (NNW) 3,663 - -63.8°
Reaches altitude 10° 00:39:41 10° 12° (NNE) 2,683 - -63.4°
Maximum altitude 00:40:04 10° 15° (NNE) 2,677 - -63.3°
Drops below altitude 10° 00:40:26 10° 19° (NNE) 2,678 - -63.3°
Sets 00:46:31 0° 64° (ENE) 3,580 - -62.8°
